Location: Haulchin
(50.3172°N, 3.4360°E)
Time: 02:57:15
(UTC+00:00)

Daily predictions for brighter satellites

Satellite Brightness Start Highest point End
(mag) Time Altitude Azimuth Time Altitude Azimuth Time Altitude Azimuth
Cosmos 2228 Rocket 3.5 00:05:20 36° SSE 00:06:49 54° E 00:11:13 10° NNE
Meteor 1-12 Rocket 4.3 00:02:47 10° NNW 00:08:42 88° E 00:11:47 30° SSE
Cosmos 2082 Rocket 2.9 00:07:01 29° SSE 00:09:16 42° ESE 00:14:38 10° NE
Helios 1A Rocket 3.9 00:07:43 23° ESE 00:09:38 38° ENE 00:13:14 10° N
Cosmos 1833 Rocket 2.9 00:08:10 26° SW 00:11:24 68° WNW 00:17:01 10° NNE
BREEZE-M DEB (TANK) 3.4 00:13:11 41° S 00:13:11 41° S 00:18:52 10° ESE
Cosmos 724 4.2 00:12:02 32° SSW 00:14:52 73° SE 00:20:42 10° NE
Cosmos 1908 4.1 00:12:33 10° NNW 00:15:45 31° W 00:16:07 30° WSW
CZ-2D R/B 4.5 00:14:40 10° ENE 00:17:10 13° E 00:19:40 10° ESE
Cosmos 2360 Rocket 4.5 00:15:27 10° NNW 00:19:57 23° NE 00:24:26 10° E
PSLV R/B 4.5 00:20:24 10° N 00:24:43 42° WNW 00:26:44 26° WSW
USA 267 3.2 00:18:21 10° ENE 00:24:56 83° SSE 00:30:21 16° SW
Cosmos 1140 Rocket 3.9 00:22:28 26° SW 00:25:16 58° WNW 00:30:26 10° NNE
Cosmos 1441 Rocket 3.8 00:23:23 10° NNW 00:26:42 36° W 00:27:03 35° WSW
Cosmos 1707 4.2 00:26:20 22° W 00:27:30 25° WNW 00:30:36 10° NNW
Cosmos 1455 3.9 00:26:25 10° NNE 00:29:20 25° ENE 00:31:18 15° ESE
Cosmos 1733 Rocket 2.9 00:26:01 10° NNW 00:30:22 82° W 00:31:54 40° S
Cosmos 841 Rocket 4.4 00:26:07 10° NNW 00:31:09 46° ENE 00:36:12 10° SE
Resurs 1-4 Rocket 4.2 00:28:42 10° NE 00:32:08 17° E 00:35:33 10° SE
Cosmos 1400 Rocket 2.7 00:32:16 45° SSW 00:33:26 84° WNW 00:37:27 10° N
GP-B 3.7 00:29:15 10° N 00:33:29 46° W 00:35:02 32° SW
H-2A R/B 3.0 00:32:48 10° N 00:36:58 40° WNW 00:38:59 25° WSW
Cosmos 381 Rocket 4.5 00:31:30 10° NNW 00:37:56 77° WSW 00:41:55 25° SSE
Cosmos 2278 4.2 00:34:46 10° NNW 00:40:26 59° NE 00:46:04 10° SE
NOSS 3-4 (A) 4.0 00:35:23 10° NW 00:42:02 53° WSW 00:47:10 21° S
NOSS 3-4 (C) 4.0 00:35:30 10° NW 00:42:09 54° SW 00:47:19 21° SSE
Cosmos 1346 Rocket 2.6 00:40:05 10° NNW 00:43:59 88° WSW 00:45:17 40° S
Cosmos 676 Rocket 4.4 00:42:47 29° S 00:45:18 56° ESE 00:50:31 10° NNE
Cosmos 468 Rocket 4.0 00:41:37 10° NNW 00:46:55 74° WSW 00:49:47 27° S
Cosmos 2251 Rocket 3.8 00:44:26 27° SW 00:47:14 60° WNW 00:52:30 10° NNE
Cosmos 407 Rocket 3.9 00:44:27 25° SW 00:47:23 56° WNW 00:52:34 10° NNE
Cosmos 1954 Rocket 4.1 00:48:42 31° S 00:51:17 74° ESE 00:56:37 10° NNE
Okean 2 3.9 00:49:49 29° SSE 00:51:25 48° E 00:55:16 10° NNE
Cosmos 2333 Rocket 4.0 00:47:53 10° NNW 00:52:59 32° NE 00:58:05 10° ESE
CZ-2C R/B 4.0 00:49:06 10° SE 00:53:45 35° ENE 00:58:26 10° N
Meteor 1-4 Rocket 3.4 00:53:08 26° ESE 00:53:48 29° E 00:56:26 10° NNE
Cosmos 1190 Rocket 4.0 00:51:10 30° SSW 00:53:50 83° WNW 00:59:11 10° NNE
Cosmos 1763 Rocket 4.0 00:51:12 10° NW 00:56:13 44° WSW 00:58:19 30° SSW
Cosmos 2322 Rocket 3.4 00:52:40 10° NNW 00:58:04 43° NE 01:03:26 10° ESE
Cosmos 1300 3.4 00:55:34 10° NNW 00:58:48 33° W 00:59:22 31° WSW
Cosmos 1703 Rocket 4.3 00:58:54 24° SSE 01:01:16 47° E 01:05:33 10° NNE
USA 234 3.5 00:56:30 12° SSE 01:02:17 47° SW 01:08:34 10° WNW
SL-14 R/B 3.9 01:01:39 30° WSW 01:02:58 42° WNW 01:06:40 10° N
Cosmos 1953 2.3 00:59:31 10° N 01:03:27 76° E 01:05:20 29° SSE
SL-8 R/B 3.9 00:59:38 10° W 01:04:10 44° SSW 01:08:42 10° SE
Cosmos 1697 Rocket 4.2 01:00:36 10° WNW 01:04:23 19° W 01:05:44 17° WSW
Cosmos 1862 Rocket 3.8 01:04:13 31° SW 01:06:01 55° WNW 01:10:17 10° N
Aureole 3 3.2 01:09:14 38° WSW 01:09:46 43° WNW 01:12:39 10° N
Cosmos 1980 Rocket 3.0 01:06:50 10° NW 01:11:52 33° WSW 01:14:01 25° SW
Nadezhda 1 Rocket 4.1 01:06:46 10° N 01:13:14 85° E 01:18:17 17° S
Cosmos 540 Rocket 4.0 01:09:48 10° NW 01:14:39 41° WSW 01:16:52 27° SSW
Cosmos 1242 Rocket 4.2 01:13:25 14° SE 01:14:45 19° E 01:16:52 10° NE
Cosmos 1300 Rocket 4.4 01:12:20 10° N 01:16:31 45° ENE 01:20:25 11° SSE
ADEOS II 3.7 01:15:03 10° NE 01:19:29 27° E 01:23:53 10° SSE
MOZ.5/SAFIR/RUBIN 5/SL-8 3.7 01:18:21 23° S 01:21:17 75° WSW 01:26:01 10° NNW
Cosmos 2369 4.4 01:17:52 10° NW 01:22:59 35° WSW 01:25:30 24° SSW
COSMOS 2406 3.3 01:19:32 24° SW 01:23:10 74° WNW 01:28:58 10° NNE
Cosmos 1408 4.4 01:21:25 12° SE 01:23:15 19° E 01:25:28 10° NE
Cosmos 1356 Rocket 4.0 01:22:17 26° SW 01:24:05 43° WNW 01:28:02 10° N
Lacrosse 5 rocket 1.1 01:20:14 10° WNW 01:24:22 73° SW 01:28:18 10° SE
IDEFIX/ARIANE 42P 3.0 01:19:33 10° NNE 01:24:44 56° E 01:28:28 19° S
EXPRESS MD2 4.4 01:27:55 19° SE 01:28:11 19° SE 01:30:56 10° E
Okean 1-7 3.2 01:30:04 27° SSW 01:32:14 59° WNW 01:36:31 10° N
Okean 3 4.4 01:34:53 22° WSW 01:36:49 33° WNW 01:40:35 10° N
ATLAS 2AS CENTAUR R/B 3.6 01:32:38 10° NW 01:39:24 51° NE 01:45:53 10° ESE
Cosmos 1315 Rocket 2.7 01:39:37 27° SSW 01:41:39 74° WNW 01:45:36 10° N
SL-16 R/B 2.2 01:36:58 10° NNW 01:42:38 70° WSW 01:48:15 10° SSE
SJ 16-02 2.7 01:39:50 13° SSE 01:43:08 30° ESE 01:46:55 10° NE
CZ-2C R/B 4.0 01:37:32 10° NNE 01:43:11 49° E 01:48:25 11° S
Helios 1A Rocket 4.2 01:43:06 20° WSW 01:44:06 22° W 01:47:10 10° NW
Cosmos 1850 Rocket 4.1 01:46:14 20° SSW 01:49:59 76° ESE 01:55:16 10° NNE
Cosmos 2082 Rocket 3.1 01:48:50 14° WSW 01:53:23 42° NW 01:58:49 10° NNE
Cosmos 1709 Rocket 4.1 01:49:42 16° S 01:54:55 88° E 02:01:21 10° N
Cosmos 1741 Rocket 4.1 01:51:18 19° SSW 01:55:05 79° ESE 02:00:23 10° NNE
Cosmos 2219 Rocket 3.3 01:50:17 10° NNW 01:55:45 47° NE 02:01:13 10° SE
Cosmos 1782 Rocket 3.6 01:52:06 10° NNW 01:56:26 61° W 01:59:39 17° S
Cosmos 2181 Rocket 4.4 01:50:32 10° N 01:56:54 65° ENE 02:03:09 10° SSE
Cosmos 1908 Rocket 4.5 01:53:04 10° NNW 01:57:03 33° W 01:59:24 20° SW
SL-16 R/B 3.0 01:50:54 10° SSE 01:57:05 67° ENE 02:03:18 10° NNW
CZ-2D R/B 2.3 01:52:35 10° NNE 01:58:06 77° ESE 02:02:42 15° S
Cosmos 1703 4.0 02:00:01 12° SSE 02:03:19 45° E 02:06:56 10° NNE
Cosmos 1455 3.3 02:00:54 10° NW 02:03:45 24° W 02:05:04 19° SW
Meteor 1-28 Rocket 3.5 02:00:32 10° SSE 02:04:04 61° ENE 02:07:36 10° N
Cosmos 2360 Rocket 2.2 01:59:00 10° NNW 02:04:44 90° SW 02:10:25 10° SSE
CRYOSAT 2 4.4 02:01:18 10° N 02:06:13 83° E 02:10:49 12° S
Cosmos 968 Rocket 3.6 02:02:10 16° SSW 02:06:13 71° ESE 02:11:21 10° NNE
USA 267 3.9 02:01:26 10° ENE 02:07:47 56° NNW 02:14:07 10° W
Genesis I 3.8 02:05:37 18° S 02:07:52 39° ESE 02:11:13 10° NE
RESURS DK-1 2.6 02:04:49 10° NNW 02:08:54 69° ENE 02:12:57 10° SE
Meteor 1-24 Rocket 4.5 02:03:18 10° S 02:09:11 56° E 02:15:02 10° NNE
MSX 3.9 02:05:19 10° NNE 02:11:04 78° WNW 02:16:00 14° SSW
Resurs 1-4 Rocket 2.1 02:07:17 10° NNE 02:12:33 79° WNW 02:17:04 14° SSW
Cosmos 841 Rocket 4.4 02:08:17 10° NW 02:12:49 30° W 02:16:19 15° SSW
H-2A R/B 3.8 02:13:03 10° N 02:16:54 47° WNW 02:19:49 16° SW
FENGYUN 3A 3.8 02:16:35 10° NNE 02:22:00 78° ESE 02:27:21 10° S
COBE Rocket 4.5 02:18:57 10° N 02:23:35 45° WNW 02:27:39 14° SW
Meteor 1-4 Rocket 4.2 02:25:17 11° WSW 02:26:53 15° WNW 02:28:47 10° NNW
Geosat 4.4 02:27:18 10° SE 02:32:16 68° NE 02:37:17 10° NNW
SL-24 R/B 4.4 02:28:51 10° S 02:33:42 68° W 02:38:32 10° N
CZ-2C R/B 3.1 02:29:15 10° SSW 02:33:58 39° W 02:38:50 10° NNW
Cosmos 2242 Rocket 3.9 02:30:52 13° SSW 02:34:42 53° WNW 02:39:07 10° N
Cosmos 2333 Rocket 2.3 02:32:00 10° NW 02:37:37 60° WSW 02:43:15 10° S
Sich 1 Rocket 3.8 02:33:13 10° N 02:37:46 75° E 02:42:13 10° SSE
Timation 1 Rocket 4.4 02:32:20 12° SW 02:37:50 74° WNW 02:43:50 10° NNE
Cosmos 1825 3.6 02:35:04 10° SSE 02:38:06 31° E 02:41:10 10° NNE
Cosmos 2098 Rocket 3.7 02:33:06 10° NNW 02:38:07 65° W 02:44:04 10° S
Cosmos 1953 4.5 02:37:36 10° WNW 02:38:38 11° W 02:39:41 10° W
Cosmos 2151 Rocket 3.7 02:35:46 10° N 02:40:17 85° ENE 02:44:45 10° S
Cosmos 1814 Rocket 4.3 02:36:24 10° NW 02:41:22 46° WSW 02:46:22 10° S
Cosmos 2292 4.4 02:38:59 10° NNW 02:42:03 62° W 02:45:38 10° S
Cosmos 2322 Rocket 2.7 02:36:51 10° NW 02:42:05 40° WSW 02:47:19 10° S
SL-27 R/B 1.9 02:40:26 13° SSW 02:42:48 71° WNW 02:45:37 10° NNE
Cosmos 1892 3.6 02:40:50 10° SSE 02:44:11 42° E 02:47:32 10° NNE
Cosmos 1242 Rocket 3.6 02:44:54 12° WSW 02:46:57 22° WNW 02:49:17 10° NNW
Meteor 2-5 Rocket 3.9 02:43:36 10° SSW 02:49:30 77° WNW 02:55:30 10° N
SL-4 R/B 3.7 02:47:48 10° SSW 02:51:23 25° SE 02:55:03 10° E
Okean 2 Rocket 3.0 02:48:46 10° NNW 02:53:10 79° W 02:57:34 10° S
Cosmos 1408 3.6 02:53:36 10° SW 02:56:01 23° WNW 02:58:28 10° NNW
Cosmos 2074 Rocket 4.1 02:50:32 10° S 02:56:46 89° WNW 03:03:01 10° N
Cosmos 1674 Rocket 3.7 02:53:48 10° S 02:58:14 85° E 03:02:42 10° N
Cosmos 1570 Rocket 4.0 02:53:59 10° NNW 02:59:17 73° WSW 03:04:35 10° SSE
ADEOS II 2.5 02:54:18 10° N 02:59:22 52° WNW 03:04:26 10° SW
Lacrosse 5 rocket 2.9 02:59:54 10° W 03:02:01 14° SW 03:04:05 10° SSW
Cosmos 2208 Rocket 4.1 02:57:07 10° NNW 03:02:28 88° WSW 03:07:41 10° SSE
IDEFIX/ARIANE 42P 3.9 02:59:36 10° N 03:03:57 27° WNW 03:08:17 10° WSW
Cosmos 1833 4.3 02:58:51 10° SSW 03:04:31 79° WNW 03:10:12 10° NNE
ALOS 2.3 03:00:11 10° N 03:04:48 69° WNW 03:09:23 10° SSW
